Content
SEND FEEDBACK

Daily
Averages
Monthly
Summary
United States of America

HYRUM, UTAH


Home > North America > United States > Utah
Elevation: 5614 feet     Latitude: 41 36N     Longitude: 111 34W

WEATHER
 
SELECT A DAY
Number of Records: 172,249;   Date Range: 1/5/95 - 12/24/14
 
SHARE

PRINT THIS DATA

[ ← Previous Day ]
WEATHER ALMANAC - FEBRUARY 13, 2013
[ Next Day → ]
[ °C ]   °F
Weather ElementAverageHighLow
Temperature26.1 °F30 °F (2:51 pm)21.9 °F (2:51 am)
Dewpoint20.4 °F23 °F (2:51 pm)16 °F (4:51 am)
Humidity78.9 %88 % (10:51 pm)71 % (4:51 am)
Barometer30.39 in30.45 in (1:51 am)30.32 in (9:51 pm)
Wind Speed3.9 mph8.1 mph (4:51 am)
Weather ElementAverage
Visibility5.8 mi
Wind DirectionSSE (162.3 °)

Weather ElementTotal
Precipitation---
Heating Degree Days39.1 (Base 65)
Averaged from 22 records on February 13, 2013
WEATHER CONDITIONS BREAKOUT
WIND DIRECTION BREAKOUT
WEATHER BY HOUR - FEBRUARY 13, 2013
[ °C ]   °F
Local TimeTemperatureDewpointHumidityBarometerVisibilityWind DirectionWind SpeedGust SpeedPrecipitationEventsConditions
1:51 AM23.0 °F18.0 °F81 %30.45 in6.0 miSE (130°)3.5 mphHaze
2:51 AM21.9 °F17.1 °F82 %30.43 in6.0 miCalmHaze
3:51 AM21.9 °F18.0 °F85 %30.42 in5.0 miCalmOvercast
4:51 AM24.1 °F16.0 °F71 %30.43 in9.0 miNorth (360°)8.1 mphOvercast
5:51 AM23.0 °F17.1 °F78 %30.43 in7.0 miSSW (210°)5.8 mphOvercast
6:51 AM23.0 °F17.1 °F78 %30.41 in8.0 miSouth (190°)6.9 mphOvercast
7:51 AM23.0 °F18.0 °F81 %30.43 in8.0 miNNW (330°)3.5 mphOvercast
8:51 AM24.1 °F19.0 °F81 %30.43 in5.0 miNNE (20°)6.9 mphHaze
9:51 AM26.1 °F19.0 °F75 %30.42 in6.0 miNorth (10°)3.5 mphHaze
10:51 AM27.0 °F19.9 °F75 %30.42 in5.0 miNNW (330°)8.1 mphHaze
11:51 AM27.0 °F21.0 °F78 %30.42 in5.0 miNorth (10°)6.9 mphHaze
12:51 PM28.0 °F21.0 °F75 %30.39 in5.0 miNorth (10°)4.6 mphHaze
1:51 PM28.0 °F21.9 °F78 %30.37 in5.0 miNNW (340°)5.8 mphHaze
2:51 PM30.0 °F23.0 °F75 %30.35 in5.0 miNorth (350°)4.6 mphHaze
3:51 PM28.9 °F23.0 °F78 %30.35 in5.0 miNorth (350°)4.6 mphHaze
4:51 PM28.9 °F23.0 °F78 %30.34 in5.0 miNNW (330°)4.6 mphHaze
5:51 PM28.0 °F23.0 °F81 %30.34 in4.0 miNorth (360°)3.5 mphHaze
6:51 PM28.0 °F23.0 °F81 %30.34 in6.0 miCalmHaze
7:51 PM28.0 °F23.0 °F81 %30.34 in7.0 miCalmOvercast
8:51 PM28.9 °F21.9 °F75 %30.33 in6.0 miCalmHaze
9:51 PM28.0 °F23.0 °F81 %30.32 in5.0 miCalmHaze
10:51 PM25.0 °F21.9 °F88 %30.32 in4.0 miWSW (240°)4.6 mphOvercast
Hourly data recorded from KLGU, located miles away from Hyrum, Utah







STORIES FROM OUR PARTNERS